START_TIME,STEP,MOV.,M15,t_acc.,M20,t_acc.
1980-11-15 06:00:32.480 ,2,0,0.,24.0,0.,24.0
1980-11-15 06:00:56.480 ,1,1,0.,24.0,0.,24.0
1980-11-15 06:01:20.480 ,1,0,0.,24.0,0.,24.0
1980-11-15 06:01:44.480 ,0,1,0.,24.0,0.,24.0
1980-11-15 06:02:08.480 ,0,0,0.,24.0,0.,24.0
1980-11-15 06:02:32.480 ,0,1,0.,24.0,0.,24.0
1980-11-15 06:02:56.480 ,0,0,0.,24.0,0.,24.0
1980-11-15 06:03:20.480 ,1,1,0.,24.0,0.,24.0
1980-11-15 06:03:44.480 ,1,0,0.,24.0,0.,24.0
1980-11-15 06:04:08.480 ,2,1,0.,24.0,0.,24.0
1980-11-15 06:04:32.480 ,2,0,0.,24.0,0.,24.0
1980-11-15 06:04:56.480 ,3,1,0.,24.0,0.,24.0
1980-11-15 06:05:20.480 ,3,0,0.,24.0,0.,24.0
1980-11-15 06:05:44.480 ,4,1,0.,24.0,0.,24.0
1980-11-15 06:06:08.480 ,4,0,0.,24.0,0.,24.0
1980-11-15 06:06:32.480 ,5,1,0.,24.0,0.,24.0
1980-11-15 06:06:56.480 ,5,0,0.,24.0,0.,24.0
1980-11-15 06:07:20.480 ,6,1,0.,24.0,0.,24.0
1980-11-15 06:07:44.480 ,6,0,0.,24.0,0.,24.0
1980-11-15 06:08:08.480 ,7,1,0.,24.0,0.,24.0
1980-11-15 06:08:32.480 ,7,0,0.,24.0,0.,24.0
1980-11-15 06:08:56.480 ,7,1,0.,24.0,0.,24.0
1980-11-15 06:09:20.480 ,7,0,0.,24.0,0.,24.0
1980-11-15 06:09:44.480 ,6,1,0.,24.0,0.,24.0
1980-11-15 06:10:08.480 ,6,0,0.,24.0,0.,24.0
1980-11-15 06:10:32.480 ,5,1,0.,24.0,0.,24.0
1980-11-15 06:10:56.480 ,5,0,0.,24.0,0.,24.0
1980-11-15 06:11:20.480 ,4,1,0.,24.0,0.,24.0
1980-11-15 06:11:44.480 ,4,0,0.,24.0,0.,24.0
1980-11-15 06:12:08.480 ,3,1,0.,24.0,0.,24.0
1980-11-15 06:12:32.480 ,3,0,0.,24.0,0.,24.0
1980-11-15 06:12:56.480 ,2,1,0.,24.0,0.,24.0
1980-11-15 06:13:20.480 ,2,0,0.,24.0,0.,24.0
1980-11-15 06:13:44.480 ,1,1,0.,24.0,0.,24.0
1980-11-15 06:14:08.480 ,1,0,0.,24.0,0.,24.0
1980-11-15 06:14:32.480 ,0,1,0.,24.0,0.,24.0
1980-11-15 06:14:56.480 ,0,0,0.,24.0,0.,24.0
1980-11-15 06:15:20.480 ,0,1,0.,24.0,0.,24.0
1980-11-15 06:15:44.480 ,0,0,0.,24.0,0.,24.0
1980-11-15 06:16:08.480 ,1,1,0.,24.0,0.,24.0
1980-11-15 06:16:32.480 ,1,0,0.,24.0,0.,24.0
1980-11-15 06:16:56.480 ,2,1,0.,24.0,0.,24.0
1980-11-15 06:17:20.480 ,2,0,0.,24.0,0.,24.0
1980-11-15 06:17:44.480 ,3,1,0.,24.0,0.,24.0
1980-11-15 06:18:08.480 ,3,0,0.,24.0,0.,24.0
1980-11-15 06:18:32.480 ,4,1,0.,24.0,0.,24.0
1980-11-15 06:18:56.480 ,4,0,0.,24.0,0.,24.0
1980-11-15 06:19:20.480 ,5,1,0.,24.0,0.,24.0
1980-11-15 06:19:44.480 ,5,0,0.,24.0,0.,24.0
1980-11-15 06:20:08.480 ,6,1,0.,24.0,0.,24.0
1980-11-15 06:20:32.480 ,6,0,0.,24.0,0.,24.0
1980-11-15 06:20:56.480 ,7,1,0.,24.0,0.,24.0
1980-11-15 06:21:20.480 ,7,0,0.,24.0,0.,24.0
1980-11-15 06:21:44.480 ,7,1,0.,24.0,0.,24.0
1980-11-15 06:22:08.480 ,7,0,0.,24.0,0.,24.0
1980-11-15 06:22:32.480 ,6,1,0.,24.0,0.,24.0
1980-11-15 06:22:56.480 ,6,0,0.,24.0,0.,24.0
1980-11-15 06:23:20.480 ,5,1,0.,24.0,0.,24.0
1980-11-15 06:23:44.480 ,5,0,0.,24.0,0.,24.0
1980-11-15 06:24:08.480 ,4,1,0.,24.0,0.,24.0
1980-11-15 06:24:32.480 ,4,0,0.,24.0,0.,24.0
1980-11-15 06:24:56.480 ,3,1,0.,24.0,0.,24.0
1980-11-15 06:25:20.480 ,3,0,0.,24.0,0.,24.0
1980-11-15 06:25:44.480 ,2,1,0.,24.0,0.,24.0
1980-11-15 06:26:08.480 ,2,0,0.,24.0,0.,24.0
1980-11-15 06:26:32.480 ,1,1,0.,24.0,0.,24.0
1980-11-15 06:26:56.480 ,1,0,0.,24.0,0.,24.0
1980-11-15 06:27:20.480 ,0,1,0.,24.0,0.,24.0
1980-11-15 06:27:44.480 ,0,0,0.,24.0,0.,24.0
1980-11-15 06:28:08.480 ,0,1,0.,24.0,0.,24.0
1980-11-15 06:28:32.480 ,0,0,0.,24.0,0.,24.0
1980-11-15 06:28:56.480 ,1,1,0.,24.0,0.,24.0
1980-11-15 06:29:20.480 ,1,0,0.,24.0,0.,24.0
1980-11-15 06:29:44.480 ,2,1,0.,24.0,0.,24.0
1980-11-15 06:30:08.480 ,2,0,0.,24.0,0.,24.0
1980-11-15 06:30:32.480 ,3,1,0.,24.0,0.,24.0
1980-11-15 06:30:56.480 ,3,0,0.,24.0,0.,24.0
1980-11-15 06:31:20.480 ,4,1,0.,24.0,0.,24.0
1980-11-15 06:31:44.480 ,4,0,0.,24.0,0.,24.0
1980-11-15 06:32:08.480 ,5,1,0.,24.0,0.,24.0
1980-11-15 06:32:32.480 ,5,0,0.,24.0,0.,24.0
1980-11-15 06:32:56.480 ,6,1,0.,24.0,0.,24.0
1980-11-15 06:33:20.480 ,6,0,0.,24.0,0.,24.0
1980-11-15 06:33:44.480 ,7,1,0.,24.0,0.,24.0
1980-11-15 06:34:08.480 ,7,0,0.,24.0,0.,24.0
1980-11-15 06:34:32.480 ,7,1,0.,24.0,0.,24.0
1980-11-15 06:34:56.480 ,7,0,0.,24.0,0.,24.0
1980-11-15 06:35:20.480 ,6,1,0.,24.0,0.,24.0
1980-11-15 06:35:44.480 ,6,0,0.,24.0,0.,24.0
1980-11-15 06:36:08.480 ,5,1,0.,24.0,0.,24.0
1980-11-15 06:36:32.480 ,5,0,0.,24.0,0.,24.0
1980-11-15 06:36:56.480 ,4,1,0.,24.0,0.,24.0
1980-11-15 06:37:20.480 ,4,0,0.,24.0,0.,24.0
1980-11-15 06:37:44.480 ,3,1,0.,24.0,0.,24.0
1980-11-15 06:38:08.480 ,3,0,0.,24.0,0.,24.0
1980-11-15 06:38:32.480 ,2,1,0.,24.0,0.,24.0
1980-11-15 06:38:56.480 ,2,0,0.,24.0,0.,24.0
1980-11-15 06:39:20.480 ,1,1,0.,24.0,0.,24.0
1980-11-15 06:39:44.480 ,1,0,0.,24.0,0.,24.0
1980-11-15 06:40:08.480 ,0,1,0.,24.0,0.,24.0
1980-11-15 06:40:32.480 ,0,0,0.,24.0,0.,24.0
1980-11-15 06:40:56.480 ,0,1,0.,24.0,0.,24.0
1980-11-15 06:41:20.480 ,0,0,0.,24.0,0.,24.0
1980-11-15 06:41:44.480 ,1,1,0.,24.0,0.,24.0
1980-11-15 06:42:08.480 ,1,0,0.,24.0,0.,24.0
1980-11-15 06:42:32.480 ,2,1,0.,24.0,0.,24.0
1980-11-15 06:42:56.480 ,2,0,0.,24.0,0.,24.0
1980-11-15 06:43:20.480 ,3,1,0.,24.0,0.,24.0
1980-11-15 06:43:44.480 ,3,0,0.,24.0,0.,24.0
1980-11-15 06:44:08.480 ,4,1,0.,24.0,0.,24.0
1980-11-15 06:44:32.480 ,4,0,0.,24.0,0.,24.0
1980-11-15 06:44:56.480 ,5,1,0.,24.0,0.,24.0
1980-11-15 06:45:20.480 ,5,0,0.,24.0,0.,24.0
1980-11-15 06:45:44.480 ,6,1,0.,24.0,0.,24.0
1980-11-15 06:46:08.480 ,6,0,0.,24.0,0.,24.0
1980-11-15 06:46:32.480 ,7,1,0.,24.0,0.,24.0
1980-11-15 06:46:56.480 ,7,0,0.,24.0,0.,24.0
1980-11-15 06:47:20.480 ,7,1,0.,24.0,0.,24.0
1980-11-15 06:47:44.480 ,7,0,0.,24.0,0.,24.0
1980-11-15 06:48:08.480 ,6,1,0.,24.0,0.,24.0
1980-11-15 06:48:32.480 ,6,0,0.,24.0,0.,24.0
1980-11-15 06:48:56.480 ,5,1,0.,24.0,0.,24.0
1980-11-15 06:49:20.480 ,5,0,0.,24.0,0.,24.0
1980-11-15 06:49:44.480 ,4,1,0.,24.0,0.,24.0
1980-11-15 06:50:08.480 ,4,0,0.,24.0,0.,24.0
1980-11-15 06:50:32.480 ,3,1,0.,24.0,0.,24.0
1980-11-15 06:50:56.480 ,3,0,0.,24.0,0.,24.0
1980-11-15 06:51:20.480 ,2,1,0.,24.0,0.,24.0
1980-11-15 06:51:44.480 ,2,0,0.,24.0,0.,24.0
1980-11-15 06:52:08.480 ,1,1,0.,24.0,0.,24.0
1980-11-15 06:52:32.480 ,1,0,0.,24.0,0.,24.0
1980-11-15 06:52:56.480 ,0,1,0.,24.0,0.,24.0
1980-11-15 06:53:20.480 ,0,0,0.,24.0,0.,24.0
1980-11-15 06:53:44.480 ,0,1,0.,24.0,0.,24.0
1980-11-15 06:54:08.480 ,0,0,0.,24.0,0.,24.0
1980-11-15 06:54:32.480 ,1,1,0.,24.0,0.,24.0
1980-11-15 06:54:56.480 ,1,0,0.,24.0,0.,24.0
1980-11-15 06:55:20.480 ,2,1,0.,24.0,0.,24.0
1980-11-15 06:55:44.480 ,2,0,0.,24.0,0.,24.0
1980-11-15 06:56:08.480 ,3,1,0.,24.0,0.,24.0
1980-11-15 06:56:32.480 ,3,0,0.,24.0,0.,24.0
1980-11-15 06:56:56.480 ,4,1,0.,24.0,0.,24.0
1980-11-15 06:57:20.480 ,4,0,0.,24.0,0.,24.0
1980-11-15 06:57:44.480 ,5,1,0.,24.0,0.,24.0
1980-11-15 06:58:08.480 ,0,0,0.,24.0,0.,24.0
1980-11-15 07:00:18.680 ,0,0,0.,24.0,0.,24.0
1980-11-15 07:00:32.480 ,0,0,0.,24.0,0.,24.0
1980-11-15 07:00:56.480 ,6,1,0.,24.0,0.,24.0
1980-11-15 07:01:20.480 ,6,0,0.,24.0,0.,24.0
1980-11-15 07:01:44.480 ,5,1,0.,24.0,0.,24.0
1980-11-15 07:02:08.480 ,5,0,0.,24.0,0.,24.0
1980-11-15 07:02:32.480 ,4,1,0.,24.0,0.,24.0
1980-11-15 07:02:56.480 ,4,0,0.,24.0,0.,24.0
1980-11-15 07:03:20.480 ,3,1,0.,24.0,0.,24.0
1980-11-15 07:03:44.480 ,3,0,0.,24.0,0.,24.0
1980-11-15 07:04:08.480 ,2,1,0.,24.0,0.,24.0
1980-11-15 07:04:32.480 ,2,0,0.,24.0,0.,24.0
1980-11-15 07:04:56.480 ,1,1,0.,24.0,0.,24.0
1980-11-15 07:05:20.480 ,1,0,0.,24.0,0.,24.0
1980-11-15 07:05:44.480 ,0,1,0.,24.0,0.,24.0
1980-11-15 07:06:08.480 ,0,0,0.,24.0,0.,24.0
1980-11-15 07:06:32.480 ,0,1,0.,24.0,0.,24.0
1980-11-15 07:06:56.480 ,0,0,0.,24.0,0.,24.0
1980-11-15 07:07:20.480 ,1,1,0.,24.0,0.,24.0
1980-11-15 07:07:44.480 ,1,0,0.,24.0,0.,24.0
1980-11-15 07:08:08.480 ,2,1,0.,24.0,0.,24.0
1980-11-15 07:08:32.480 ,2,0,0.,24.0,0.,24.0
1980-11-15 07:08:56.480 ,3,1,0.,24.0,0.,24.0
1980-11-15 07:09:20.480 ,3,0,0.,24.0,0.,24.0
1980-11-15 07:09:44.480 ,4,1,0.,24.0,0.,24.0
1980-11-15 07:10:08.480 ,4,0,0.,24.0,0.,24.0
1980-11-15 07:10:32.480 ,5,1,0.,24.0,0.,24.0
1980-11-15 07:10:56.480 ,5,0,0.,24.0,0.,24.0
1980-11-15 07:11:20.480 ,6,1,0.,24.0,0.,24.0
1980-11-15 07:11:44.480 ,6,0,0.,24.0,0.,24.0
1980-11-15 07:12:08.480 ,7,1,0.,24.0,0.,24.0
1980-11-15 07:12:32.480 ,7,0,0.,24.0,0.,24.0
1980-11-15 07:12:56.480 ,7,1,0.,24.0,0.,24.0
1980-11-15 07:13:20.480 ,7,0,0.,24.0,0.,24.0
1980-11-15 07:13:44.480 ,6,1,0.,24.0,0.,24.0
1980-11-15 07:14:08.480 ,6,0,0.,24.0,0.,24.0
1980-11-15 07:14:32.490 ,5,1,0.,24.0,0.,24.0
1980-11-15 07:14:56.490 ,5,0,0.,24.0,0.,24.0
1980-11-15 07:15:20.490 ,4,1,0.,24.0,0.,24.0
1980-11-15 07:15:44.490 ,4,0,0.,24.0,0.,24.0
1980-11-15 07:16:08.490 ,3,1,0.,24.0,0.,24.0
1980-11-15 07:16:32.490 ,3,0,0.,24.0,0.,24.0
1980-11-15 07:16:56.490 ,2,1,0.,24.0,0.,24.0
1980-11-15 07:17:20.480 ,2,0,0.,24.0,0.,24.0
1980-11-15 07:17:44.480 ,1,1,0.,24.0,0.,24.0
1980-11-15 07:18:08.480 ,1,0,0.,24.0,0.,24.0
1980-11-15 07:18:32.480 ,0,1,0.,24.0,0.,24.0
1980-11-15 07:18:56.480 ,0,0,0.,24.0,0.,24.0
1980-11-15 07:19:20.480 ,0,1,0.,24.0,0.,24.0
1980-11-15 07:19:44.480 ,0,0,0.,24.0,0.,24.0
1980-11-15 07:20:08.480 ,1,1,0.,24.0,0.,24.0
1980-11-15 07:20:32.480 ,1,0,0.,24.0,0.,24.0
1980-11-15 07:20:56.480 ,2,1,0.,24.0,0.,24.0
1980-11-15 07:21:20.480 ,2,0,0.,24.0,0.,24.0
1980-11-15 07:21:44.480 ,3,1,0.,24.0,0.,24.0
1980-11-15 07:22:08.480 ,3,0,0.,24.0,0.,24.0
1980-11-15 07:22:32.480 ,4,1,0.,24.0,0.,24.0
1980-11-15 07:22:56.480 ,4,0,0.,24.0,0.,24.0
1980-11-15 07:23:20.480 ,5,1,0.,24.0,0.,24.0
1980-11-15 07:23:44.480 ,5,0,0.,24.0,0.,24.0
1980-11-15 07:24:08.480 ,6,1,0.,24.0,0.,24.0
1980-11-15 07:24:32.480 ,6,0,0.,24.0,0.,24.0
1980-11-15 07:24:56.480 ,7,1,0.,24.0,0.,24.0
1980-11-15 07:25:20.480 ,7,0,0.,24.0,0.,24.0
1980-11-15 07:25:44.480 ,7,1,0.,24.0,0.,24.0
1980-11-15 07:26:08.480 ,7,0,0.,24.0,0.,24.0
1980-11-15 07:26:32.480 ,6,1,0.,24.0,0.,24.0
1980-11-15 07:26:56.480 ,6,0,0.,24.0,0.,24.0
1980-11-15 07:27:20.480 ,5,1,0.,24.0,0.,24.0
1980-11-15 07:27:44.480 ,5,0,0.,24.0,0.,24.0
1980-11-15 07:28:08.480 ,4,1,0.,24.0,0.,24.0
1980-11-15 07:28:32.480 ,4,0,0.,24.0,0.,24.0
1980-11-15 07:28:56.480 ,3,1,0.,24.0,0.,24.0
1980-11-15 07:29:20.480 ,3,0,0.,24.0,0.,24.0
1980-11-15 07:29:44.480 ,2,1,0.,24.0,0.,24.0
1980-11-15 07:30:08.480 ,2,0,0.,24.0,0.,24.0
1980-11-15 07:30:32.480 ,1,1,0.,24.0,0.,24.0
1980-11-15 07:30:56.480 ,1,0,0.,24.0,0.,24.0
1980-11-15 07:31:20.480 ,0,1,0.,24.0,0.,24.0
1980-11-15 07:31:44.480 ,0,0,0.,24.0,0.,24.0
1980-11-15 07:32:08.480 ,0,1,0.,24.0,0.,24.0
1980-11-15 07:32:32.480 ,0,0,0.,24.0,0.,24.0
1980-11-15 07:36:08.480 ,0,0,0.,24.0,0.,24.0
1980-11-15 07:36:32.480 ,0,0,0.,24.0,0.,24.0
1980-11-15 07:36:56.480 ,6,1,0.,24.0,0.,24.0
1980-11-15 07:37:20.480 ,6,0,0.,24.0,0.,24.0
1980-11-15 07:37:44.480 ,7,1,0.,24.0,0.,24.0
1980-11-15 07:38:08.480 ,7,0,0.,24.0,0.,24.0
1980-11-15 07:38:32.480 ,7,1,0.,24.0,0.,24.0
1980-11-15 07:38:56.480 ,7,0,0.,24.0,0.,24.0
1980-11-15 07:39:20.480 ,6,1,0.,24.0,0.,24.0
1980-11-15 07:39:44.480 ,6,0,0.,24.0,0.,24.0
1980-11-15 07:40:08.480 ,5,1,0.,24.0,0.,24.0
1980-11-15 07:40:32.480 ,5,0,0.,24.0,0.,24.0
1980-11-15 07:40:56.480 ,4,1,0.,24.0,0.,24.0
1980-11-15 07:41:20.480 ,4,0,0.,24.0,0.,24.0
1980-11-15 07:41:44.480 ,3,1,0.,24.0,0.,24.0
1980-11-15 07:42:08.480 ,3,0,0.,24.0,0.,24.0
1980-11-15 07:42:32.480 ,2,1,0.,24.0,0.,24.0
1980-11-15 07:42:56.480 ,2,0,0.,24.0,0.,24.0
1980-11-15 07:43:20.480 ,1,1,0.,24.0,0.,24.0
1980-11-15 07:43:44.480 ,1,0,0.,24.0,0.,24.0
1980-11-15 07:44:08.480 ,0,1,0.,24.0,0.,24.0
1980-11-15 07:44:32.480 ,0,0,0.,24.0,0.,24.0
1980-11-15 07:44:56.480 ,0,1,0.,24.0,0.,24.0
1980-11-15 07:45:20.480 ,0,0,0.,24.0,0.,24.0
1980-11-15 07:45:44.480 ,1,1,0.,24.0,0.,24.0
1980-11-15 07:46:08.480 ,1,0,0.,24.0,0.,24.0
1980-11-15 07:46:32.480 ,2,1,0.,24.0,0.,24.0
1980-11-15 07:46:56.480 ,2,0,0.,24.0,0.,24.0
1980-11-15 07:48:08.480 ,0,0,0.,24.0,0.,24.0
1980-11-15 07:48:32.480 ,0,0,0.,24.0,0.,24.0
1980-11-15 07:48:56.480 ,5,1,0.,24.0,0.,24.0
1980-11-15 07:49:20.480 ,5,0,0.,24.0,0.,24.0
1980-11-15 07:49:44.480 ,6,1,0.,24.0,0.,24.0
1980-11-15 07:50:08.480 ,6,0,0.,24.0,0.,24.0
1980-11-15 07:50:32.480 ,7,1,0.,24.0,0.,24.0
1980-11-15 07:50:56.480 ,7,0,0.,24.0,0.,24.0
1980-11-15 07:51:20.480 ,7,1,0.,24.0,0.,24.0
1980-11-15 07:51:44.480 ,7,0,0.,24.0,0.,24.0
1980-11-15 07:52:08.480 ,6,1,0.,24.0,0.,24.0
1980-11-15 07:52:32.480 ,6,0,0.,24.0,0.,24.0
1980-11-15 07:52:56.480 ,5,1,0.,24.0,0.,24.0
1980-11-15 07:53:20.480 ,5,0,0.,24.0,0.,24.0
1980-11-15 07:53:44.480 ,4,1,0.,24.0,0.,24.0
1980-11-15 07:54:08.480 ,4,0,0.,24.0,0.,24.0
1980-11-15 07:54:32.480 ,3,1,0.,24.0,0.,24.0
1980-11-15 07:54:56.480 ,3,0,0.,24.0,0.,24.0
1980-11-15 07:55:20.480 ,2,1,0.,24.0,0.,24.0
1980-11-15 07:55:44.480 ,2,0,0.,24.0,0.,24.0
1980-11-15 07:56:08.480 ,1,1,0.,24.0,0.,24.0
1980-11-15 07:56:32.480 ,1,0,0.,24.0,0.,24.0
1980-11-15 07:36:08.480 ,0,0,0.,24.0,0.,24.0
1980-11-15 07:36:32.480 ,0,0,0.,24.0,0.,24.0
1980-11-15 07:36:56.480 ,6,1,0.,24.0,0.,24.0
1980-11-15 07:37:20.480 ,6,0,0.,24.0,0.,24.0
1980-11-15 07:37:44.480 ,7,1,0.,24.0,0.,24.0
1980-11-15 07:38:08.480 ,7,0,0.,24.0,0.,24.0
1980-11-15 07:38:32.480 ,7,1,0.,24.0,0.,24.0
1980-11-15 07:38:56.480 ,7,0,0.,24.0,0.,24.0
1980-11-15 07:39:20.480 ,6,1,0.,24.0,0.,24.0
1980-11-15 07:39:44.480 ,6,0,0.,24.0,0.,24.0
1980-11-15 07:40:08.480 ,5,1,0.,24.0,0.,24.0
1980-11-15 07:40:32.480 ,5,0,0.,24.0,0.,24.0
1980-11-15 07:40:56.480 ,4,1,0.,24.0,0.,24.0
1980-11-15 07:41:20.480 ,4,0,0.,24.0,0.,24.0
1980-11-15 07:41:44.480 ,3,1,0.,24.0,0.,24.0
1980-11-15 07:42:08.480 ,3,0,0.,24.0,0.,24.0
1980-11-15 07:42:32.480 ,2,1,0.,24.0,0.,24.0
1980-11-15 07:42:56.480 ,2,0,0.,24.0,0.,24.0
1980-11-15 07:43:20.480 ,1,1,0.,24.0,0.,24.0
1980-11-15 07:43:44.480 ,1,0,0.,24.0,0.,24.0
1980-11-15 07:44:08.480 ,0,1,0.,24.0,0.,24.0
1980-11-15 07:44:32.480 ,0,0,0.,24.0,0.,24.0
1980-11-15 07:44:56.480 ,0,1,0.,24.0,0.,24.0
1980-11-15 07:45:20.480 ,0,0,0.,24.0,0.,24.0
1980-11-15 07:45:44.480 ,1,1,0.,24.0,0.,24.0
1980-11-15 07:46:08.480 ,1,0,0.,24.0,0.,24.0
1980-11-15 07:46:32.480 ,2,1,0.,24.0,0.,24.0
1980-11-15 07:46:56.480 ,2,0,0.,24.0,0.,24.0
1980-11-15 07:47:20.480 ,3,1,0.,24.0,0.,24.0
1980-11-15 07:47:44.480 ,3,0,0.,24.0,0.,24.0
1980-11-15 07:48:08.480 ,4,1,0.,24.0,0.,24.0
1980-11-15 07:48:32.480 ,4,0,0.,24.0,0.,24.0
1980-11-15 07:48:56.480 ,5,1,0.,24.0,0.,24.0
1980-11-15 07:49:20.480 ,5,0,0.,24.0,0.,24.0
1980-11-15 07:49:44.480 ,6,1,0.,24.0,0.,24.0
1980-11-15 07:50:08.480 ,6,0,0.,24.0,0.,24.0
1980-11-15 07:50:32.480 ,7,1,0.,24.0,0.,24.0
1980-11-15 07:50:56.480 ,7,0,0.,24.0,0.,24.0
1980-11-15 07:51:20.480 ,7,1,0.,24.0,0.,24.0
1980-11-15 07:51:44.480 ,7,0,0.,24.0,0.,24.0
1980-11-15 07:52:08.480 ,6,1,0.,24.0,0.,24.0
1980-11-15 07:52:32.480 ,6,0,0.,24.0,0.,24.0
1980-11-15 07:52:56.480 ,5,1,0.,24.0,0.,24.0
1980-11-15 07:53:20.480 ,5,0,0.,24.0,0.,24.0
1980-11-15 07:53:44.480 ,4,1,0.,24.0,0.,24.0
1980-11-15 07:54:08.480 ,4,0,0.,24.0,0.,24.0
1980-11-15 07:54:32.480 ,3,1,0.,24.0,0.,24.0
1980-11-15 07:54:56.480 ,3,0,0.,24.0,0.,24.0
1980-11-15 07:55:20.480 ,2,1,0.,24.0,0.,24.0
1980-11-15 07:55:44.480 ,2,0,0.,24.0,0.,24.0
1980-11-15 07:56:08.480 ,1,1,0.,24.0,0.,24.0
1980-11-15 07:56:32.480 ,1,0,0.,24.0,0.,24.0
1980-11-15 07:56:56.480 ,0,1,0.,24.0,0.,24.0
1980-11-15 07:57:20.480 ,0,0,0.,24.0,0.,24.0
1980-11-15 07:57:44.480 ,0,1,0.,24.0,0.,24.0
1980-11-15 07:58:08.480 ,0,0,0.,24.0,0.,24.0
1980-11-15 07:58:32.480 ,1,1,0.,24.0,0.,24.0
1980-11-15 07:58:56.480 ,1,0,0.,24.0,0.,24.0
1980-11-15 07:59:20.480 ,2,1,0.,24.0,0.,24.0
1980-11-15 07:59:44.480 ,2,0,0.,24.0,0.,24.0
1980-11-15 08:00:08.480 ,3,1,0.,24.0,0.,24.0
1980-11-15 08:00:32.490 ,3,0,0.,24.0,0.,24.0
1980-11-15 08:00:56.490 ,4,1,0.,24.0,0.,24.0
1980-11-15 08:01:20.490 ,4,0,0.,24.0,0.,24.0
1980-11-15 08:01:44.490 ,5,1,0.,24.0,0.,24.0
1980-11-15 08:02:08.490 ,5,0,0.,24.0,0.,24.0
1980-11-15 08:02:32.490 ,6,1,0.,24.0,0.,24.0
1980-11-15 08:02:56.490 ,6,0,0.,24.0,0.,24.0
1980-11-15 08:03:20.490 ,7,1,0.,24.0,0.,24.0
1980-11-15 08:03:44.490 ,7,0,0.,24.0,0.,24.0
1980-11-15 08:04:08.490 ,7,1,0.,24.0,0.,24.0
1980-11-15 08:04:32.490 ,7,0,0.,24.0,0.,24.0
1980-11-15 08:04:56.490 ,6,1,0.,24.0,0.,24.0
1980-11-15 08:05:20.490 ,6,0,0.,24.0,0.,24.0
1980-11-15 08:05:44.490 ,5,1,0.,24.0,0.,24.0
1980-11-15 08:06:08.490 ,5,0,0.,24.0,0.,24.0
1980-11-15 08:06:32.490 ,4,1,0.,24.0,0.,24.0
1980-11-15 08:06:56.490 ,4,0,0.,24.0,0.,24.0
1980-11-15 08:07:20.490 ,3,1,0.,24.0,0.,24.0
1980-11-15 08:07:44.490 ,3,0,0.,24.0,0.,24.0
1980-11-15 08:08:08.490 ,2,1,0.,24.0,0.,24.0
1980-11-15 08:08:32.480 ,2,0,0.,24.0,0.,24.0
1980-11-15 08:08:56.490 ,1,1,0.,24.0,0.,24.0
1980-11-15 08:09:20.490 ,1,0,0.,24.0,0.,24.0
1980-11-15 08:09:44.490 ,0,1,0.,24.0,0.,24.0
1980-11-15 08:10:08.490 ,0,0,0.,24.0,0.,24.0
1980-11-15 08:10:32.490 ,0,1,0.,24.0,0.,24.0
1980-11-15 08:10:56.490 ,0,0,0.,24.0,0.,24.0
1980-11-15 08:11:20.490 ,1,1,0.,24.0,0.,24.0
1980-11-15 08:11:44.490 ,1,0,0.,24.0,0.,24.0
1980-11-15 08:12:08.490 ,2,1,0.,24.0,0.,24.0
1980-11-15 08:12:32.490 ,2,0,0.,24.0,0.,24.0
1980-11-15 08:12:56.490 ,3,1,0.,24.0,0.,24.0
1980-11-15 08:13:20.490 ,3,0,0.,24.0,0.,24.0
1980-11-15 08:13:44.490 ,4,1,0.,24.0,0.,24.0
1980-11-15 08:14:08.490 ,4,0,0.,24.0,0.,24.0
1980-11-15 08:14:32.490 ,5,1,0.,24.0,0.,24.0
1980-11-15 08:14:56.490 ,5,0,0.,24.0,0.,24.0
1980-11-15 08:15:20.490 ,6,1,0.,24.0,0.,24.0
1980-11-15 08:15:44.490 ,6,0,0.,24.0,0.,24.0
1980-11-15 08:16:08.490 ,7,1,0.,24.0,0.,24.0
1980-11-15 08:16:32.490 ,7,0,0.,24.0,0.,24.0
1980-11-15 08:16:56.490 ,7,1,0.,24.0,0.,24.0
1980-11-15 08:17:20.480 ,7,0,0.,24.0,0.,24.0
1980-11-15 08:17:44.480 ,6,1,0.,24.0,0.,24.0
1980-11-15 08:18:08.480 ,6,0,0.,24.0,0.,24.0
1980-11-15 08:18:32.480 ,5,1,0.,24.0,0.,24.0
1980-11-15 08:18:56.480 ,5,0,0.,24.0,0.,24.0
1980-11-15 08:19:20.480 ,4,1,0.,24.0,0.,24.0
1980-11-15 08:19:44.480 ,4,0,0.,24.0,0.,24.0
1980-11-15 08:20:08.480 ,3,1,0.,24.0,0.,24.0
1980-11-15 08:20:32.480 ,3,0,0.,24.0,0.,24.0
1980-11-15 08:20:56.480 ,2,1,0.,24.0,0.,24.0
1980-11-15 08:21:20.480 ,2,0,0.,24.0,0.,24.0
1980-11-15 08:21:44.480 ,1,1,0.,24.0,0.,24.0
1980-11-15 08:22:08.480 ,1,0,0.,24.0,0.,24.0
1980-11-15 08:22:32.480 ,0,1,0.,24.0,0.,24.0
1980-11-15 08:22:56.480 ,0,0,0.,24.0,0.,24.0
1980-11-15 08:23:20.480 ,0,1,0.,24.0,0.,24.0
1980-11-15 08:23:44.480 ,0,0,0.,24.0,0.,24.0
1980-11-15 08:24:08.480 ,1,1,0.,24.0,0.,24.0
1980-11-15 08:24:32.480 ,1,0,0.,24.0,0.,24.0
1980-11-15 08:24:56.480 ,2,1,0.,24.0,0.,24.0
1980-11-15 08:25:20.480 ,2,0,0.,24.0,0.,24.0
1980-11-15 08:25:44.480 ,3,1,0.,24.0,0.,24.0
1980-11-15 08:26:08.480 ,3,0,0.,24.0,0.,24.0
1980-11-15 08:26:32.480 ,4,1,0.,24.0,0.,24.0
1980-11-15 08:26:56.480 ,4,0,0.,24.0,0.,24.0
1980-11-15 08:27:20.480 ,5,1,0.,24.0,0.,24.0
1980-11-15 08:27:44.480 ,5,0,0.,24.0,0.,24.0
1980-11-15 08:28:08.480 ,6,1,0.,24.0,0.,24.0
1980-11-15 08:28:32.480 ,6,0,0.,24.0,0.,24.0
1980-11-15 08:28:56.480 ,7,1,0.,24.0,0.,24.0
1980-11-15 08:29:20.480 ,7,0,0.,24.0,0.,24.0
1980-11-15 08:29:44.480 ,7,1,0.,24.0,0.,24.0
1980-11-15 08:30:08.480 ,7,0,0.,24.0,0.,24.0
1980-11-15 08:30:32.480 ,6,1,0.,24.0,0.,24.0
1980-11-15 08:30:56.480 ,6,0,0.,24.0,0.,24.0
1980-11-15 08:31:20.480 ,5,1,0.,24.0,0.,24.0
1980-11-15 08:31:44.480 ,5,0,0.,24.0,0.,24.0
1980-11-15 08:32:08.480 ,4,1,0.,24.0,0.,24.0
1980-11-15 08:32:32.480 ,4,0,0.,24.0,0.,24.0
1980-11-15 08:32:56.480 ,3,1,0.,24.0,0.,24.0
1980-11-15 08:33:20.480 ,3,0,0.,24.0,0.,24.0
1980-11-15 08:33:44.480 ,2,1,0.,24.0,0.,24.0
1980-11-15 08:34:08.480 ,2,0,0.,24.0,0.,24.0
1980-11-15 08:34:32.490 ,1,1,0.,24.0,0.,24.0
1980-11-15 08:34:56.490 ,1,0,0.,24.0,0.,24.0
1980-11-15 08:35:20.490 ,0,1,0.,24.0,0.,24.0
1980-11-15 08:35:44.490 ,0,0,0.,24.0,0.,24.0
1980-11-15 08:36:08.490 ,0,1,0.,24.0,0.,24.0
1980-11-15 08:36:32.490 ,0,0,0.,24.0,0.,24.0
1980-11-15 08:36:56.490 ,1,1,0.,24.0,0.,24.0
1980-11-15 08:37:20.490 ,1,0,0.,24.0,0.,24.0
1980-11-15 08:37:44.490 ,2,1,0.,24.0,0.,24.0
1980-11-15 08:38:08.490 ,2,0,0.,24.0,0.,24.0
1980-11-15 08:38:32.490 ,3,1,0.,24.0,0.,24.0
1980-11-15 08:38:56.490 ,3,0,0.,24.0,0.,24.0
1980-11-15 08:39:20.490 ,4,1,0.,24.0,0.,24.0
1980-11-15 08:39:44.490 ,4,0,0.,24.0,0.,24.0
1980-11-15 08:40:08.490 ,5,1,0.,24.0,0.,24.0
1980-11-15 08:40:32.490 ,5,0,0.,24.0,0.,24.0
1980-11-15 08:40:56.490 ,6,1,0.,24.0,0.,24.0
1980-11-15 08:41:20.490 ,6,0,0.,24.0,0.,24.0
1980-11-15 08:41:44.490 ,7,1,0.,24.0,0.,24.0
1980-11-15 08:42:08.490 ,7,0,0.,24.0,0.,24.0
1980-11-15 08:42:32.490 ,7,1,0.,24.0,0.,24.0
1980-11-15 08:42:56.490 ,7,0,0.,24.0,0.,24.0
1980-11-15 08:43:20.490 ,6,1,0.,24.0,0.,24.0
1980-11-15 08:43:44.490 ,6,0,0.,24.0,0.,24.0
1980-11-15 08:44:08.490 ,5,1,0.,24.0,0.,24.0
1980-11-15 08:44:32.490 ,5,0,0.,24.0,0.,24.0
1980-11-15 08:44:56.490 ,4,1,0.,24.0,0.,24.0
1980-11-15 08:45:20.490 ,4,0,0.,24.0,0.,24.0
1980-11-15 08:45:44.490 ,3,1,0.,24.0,0.,24.0
1980-11-15 08:46:08.490 ,3,0,0.,24.0,0.,24.0
1980-11-15 08:46:32.490 ,2,1,0.,24.0,0.,24.0
1980-11-15 08:46:56.490 ,2,0,0.,24.0,0.,24.0
1980-11-15 08:47:20.490 ,1,1,0.,24.0,0.,24.0
1980-11-15 08:47:44.490 ,1,0,0.,24.0,0.,24.0
1980-11-15 08:48:08.490 ,0,1,0.,24.0,0.,24.0
1980-11-15 08:48:32.490 ,0,0,0.,24.0,0.,24.0
1980-11-15 08:48:56.490 ,0,0,,0,,0
1980-11-15 08:49:20.490 ,0,0,,0,,0
1980-11-15 08:51:20.490 ,0,0,0.,24.0,0.,24.0
1980-11-15 08:51:44.490 ,0,0,0.,24.0,0.,24.0
1980-11-15 08:52:08.490 ,4,1,0.,24.0,0.,24.0
1980-11-15 08:52:32.490 ,4,0,0.,24.0,0.,24.0
1980-11-15 08:52:56.490 ,5,1,0.,24.0,0.,24.0
1980-11-15 08:53:20.490 ,5,0,0.,24.0,0.,24.0
1980-11-15 08:53:44.490 ,6,1,0.,24.0,0.,24.0
1980-11-15 08:54:08.490 ,6,0,0.,24.0,0.,24.0
1980-11-15 08:54:32.490 ,7,1,0.,24.0,0.,24.0
1980-11-15 08:54:56.490 ,7,0,0.,24.0,0.,24.0
1980-11-15 08:55:20.490 ,7,1,0.,24.0,0.,24.0
1980-11-15 08:55:44.490 ,7,0,0.,24.0,0.,24.0
1980-11-15 08:56:08.490 ,6,1,0.,24.0,0.,24.0
1980-11-15 08:56:32.490 ,6,0,0.,24.0,0.,24.0
1980-11-15 08:56:56.490 ,5,1,0.,24.0,0.,24.0
1980-11-15 08:57:20.490 ,5,0,0.,24.0,0.,24.0
1980-11-15 08:57:44.490 ,4,1,0.,24.0,0.,24.0
1980-11-15 08:58:08.490 ,4,0,0.,24.0,0.,24.0
1980-11-15 08:58:32.490 ,3,1,0.,24.0,0.,24.0
1980-11-15 08:58:56.490 ,3,0,0.,24.0,0.,24.0
1980-11-15 08:59:20.490 ,2,1,0.,24.0,0.,24.0
1980-11-15 08:59:44.490 ,2,0,0.,24.0,0.,24.0
1980-11-15 09:00:08.490 ,1,1,0.,24.0,0.,24.0
